Weather in Gliwice

Poland     50°18′17″N   18°39′45″E
temp.,
°C
wind,
m/s
gust,
m/s
humid.,
%
clouds,
%
prec.,
mm/h
press.,
hPa
HPBL,
m
15 may, sat
sat1523:00+10wsw2587100 0.0 1009234
02:00+10sw2593100 0.0 1010195
05:00+8ssw2495100 0.0 101094
08:00+12ssw337898 0.0 1011296
11:00+16ssw33575 0.0 10101166
14:00+18sw3451100 0.5 10081730
17:00+19s445179 0.0 10071714
20:00+13sse3483100 2.2 100794
16 may, sun
sun1623:00+12sw2388100 1.9 100756
02:00+11n1195100 2.4 100769
05:00+11se1495100 1.6 1006150
08:00+12s259098 2.7 1007396
11:00+13w3489100 0.6 1007486
14:00+11w4791100 1.1 1007523
17:00+12sw3583100 0.3 1006568
20:00+11s35875 0.3 1006187
17 may, mon
mon1723:00+9ssw24903 0.0 100787
02:00+9ssw2587100 0.0 1007117
05:00+8ssw2487100 0.0 100794
08:00+10s2495100 1.3 1007248
11:00+10s2597100 3.8 1008251
14:00+14ssw467691 5.0 1007959
17:00+14wnw56775 3.1 1006864
20:00+11w35865 4.6 1008184
18 may, tue
tue1823:00+8wsw389223 0.1 1009289
02:00+6sw36945 0.1 1009152
05:00+6sw38955 0.0 1010211
08:00+10wsw46825 0.0 1010440
11:00+12wsw5670100 0.6 10111398
14:00+15wsw5760100 0.9 10101633
17:00+13wsw456619 0.3 1011990
20:00+11w368054 0.8 1011177
19 may, wed
wed1923:00+9sw2589100 0.0 1013185
02:00+9w3790100 0.0 1013423
05:00+8wnw3887100 0.0 1013338
08:00+9w3685100 0.0 1015467
11:00+10w3676100 0.1 1015768
14:00+13wnw5763100 0.8 10141467
17:00+14nw575553 0.1 10141727
20:00+11wnw47719 0.3 1015351